Preview of NWS' New Version of Forecast
This preview is not operational and should not be used for support decisions.

Regional Weather Roundup (RWR)

Issued by National Weather Service (NWS)

                            
000
ASUS43 KTOP 212359
RWRKS 

WEATHER ROUNDUP FOR KANSAS
NATIONAL WEATHER SERVICE GOODLAND KS
600 PM CST THU FEB 21 2019

NOTE:  "FAIR" INDICATES FEW OR NO CLOUDS BELOW 12,000 FEET WITH NO
SIGNIFICANT WEATHER AND/OR OBSTRUCTIONS TO VISIBILITY.

KSZ001>006-013>018-027>032-041>047-220100-
NORTHWEST KANSAS
  
CITY           SKY/WX    TMP DP  RH WIND       PRES   REMARKS
GOODLAND       MOCLDY    35  29  78 E8        29.84R                  
6HR MIN TEMP:  29; 6HR MAX TEMP:  39;                                

HAYS           MOCLDY    39  33  79 E13       29.97R WCI  31          
HILL CITY      CLOUDY    39  32  76 E14       29.95R WCI  31          
6HR MIN TEMP:  38; 6HR MAX TEMP:  44;                                

RUSSELL        CLOUDY    39  32  76 E9        29.96R                  
6HR MIN TEMP:  37; 6HR MAX TEMP:  40;                                

$$

KSZ061>065-074>080-084>089-220100-
SOUTHWEST KANSAS
  
CITY           SKY/WX    TMP DP  RH WIND       PRES   REMARKS
DODGE CITY     CLEAR     49  28  44 SE21G33   29.86R                  
6HR MIN TEMP:  38; 6HR MAX TEMP:  53;                                

ELKHART        MOCLDY    53  27  36 S12       29.78R                  
GARDEN CITY    CLEAR     49  29  46 SE18G33   29.80S                  
6HR MIN TEMP:  38; 6HR MAX TEMP:  54;                                

GREAT BEND     CLEAR     40  33  76 SE12      29.95R WCI  33          
LIBERAL        CLEAR     52  29  41 SE20G29   29.81R                  
$$

KSZ066>073-081>083-090>101-220100-
SOUTHEAST KANSAS
  
CITY           SKY/WX    TMP DP  RH WIND       PRES   REMARKS
CHANUTE        PTCLDY    44  26  49 E10       30.07F                  
6HR MIN TEMP:  44; 6HR MAX TEMP:  49;                                

COFFEYVILLE    PTCLDY    45  33  63 E7        30.05F                  
6HR MIN TEMP:  45; 6HR MAX TEMP:  50;                                

HUTCHINSON     CLOUDY    43  34  70 E14       29.97F                  
6HR MIN TEMP:  40; 6HR MAX TEMP:  44;                                

MEDICINE LODGE   N/A     46  32  58 SE7       29.94S                  
NEWTON         CLOUDY    42  31  64 E13       30.03S                  
PARSONS        CLOUDY    44  30  57 VRB5      30.07F                  
6HR MIN TEMP:  44; 6HR MAX TEMP:  48;                                

WICHITA INTL   PTCLDY    47  33  58 SE12      30.01R                  
6HR MIN TEMP:  45; 6HR MAX TEMP:  51;                                

WICHITA JABRA  PTCLDY    44  32  62 SE10      30.03R                  
6HR MIN TEMP:  44; 6HR MAX TEMP:  50;                                

WICHITA MCCONL MOCLDY    46  33  60 E9        30.03R                  
WINFIELD       CLEAR     48  32  53 SE8       30.03R                  
6HR MIN TEMP:  41; 6HR MAX TEMP:  51;                                

$$

KSZ007>012-019>026-033>040-048>060-102>105-220100-
NORTHEAST KANSAS
  
CITY           SKY/WX    TMP DP  RH WIND       PRES   REMARKS
CONCORDIA      CLOUDY    36  25  64 E15       30.05R WCI  27          
6HR MIN TEMP:  32; 6HR MAX TEMP:  36;                                

EMPORIA        CLEAR     37  28  70 E8        30.08S                  
6HR MIN TEMP:  37; 6HR MAX TEMP:  44;                                

LAWRENCE       CLOUDY    38  23  55 E9        30.17R                  
6HR MIN TEMP:  37; 6HR MAX TEMP:  41;                                

MANHATTAN      PTCLDY    39  24  55 E13       30.09F WCI  31          
6HR MIN TEMP:  35; 6HR MAX TEMP:  43;                                

OLATHE IND     MOCLDY    37  24  59 E10       30.16R WCI  30          
6HR MIN TEMP:  37; 6HR MAX TEMP:  40;                                

OLATHE EXE     PTCLDY    37  23  56 E9        30.15S                  
6HR MIN TEMP:  37; 6HR MAX TEMP:  39;                                

SALINA         CLOUDY    41  29  62 E12       30.03S                  
6HR MIN TEMP:  41; 6HR MAX TEMP:  45;                                

TOPEKA BILLARD PTCLDY    39  22  50 E10       30.14F WCI  32          
6HR MIN TEMP:  37; 6HR MAX TEMP:  42;                                

TOPEKA FORBES  MOCLDY    38  23  55 E9        30.13S                  
6HR MIN TEMP:  38; 6HR MAX TEMP:  41;                                

$$